Dickinson Theodore Roosevelt Regional Airport
KDIK : now visible

Airfield :











YOU CAN JOIN US ON...

 
LOGIN :

Register | Disclaimer

   EN    FR    IT 

 









Legend :    VFR   Marginal VFR   IFR   Intensive IFR   Very Intensive IFR
Visi :
Ceiling :
>= 8 km
>= 3000ft
5 to 8 km
1000 to 3000 ft
1500m to 5 km
500 to 1000 ft
800 to 1500m
200 to 500 ft
< 800m
< 200 ft
Symbols :   Thunderstorms  Fog  Heavy snow  Heavy precipitations  Wind > 20 kt






- Airport Elevation : 2592 ft


KDIK - Dickinson Theodore Roosevelt Regional

CURRENT METAR :
  • 171756Z AUTO 17016G27KT 10SM CLR 24/08 A2995 RMK AO2 PK WND 16027/1751 SLP130 T02390083 10239 20100 58014

EXPIRED METARs :
  • 171656Z AUTO 18016G23KT 10SM CLR 22/09 A2997 RMK AO2 SLP137 T02170089
  • 171556Z AUTO 16014KT 10SM CLR 21/09 A2998 RMK AO2 SLP142 T02060094

TAF KDIK
Valid from the 17 at 18:00 until the 18 at 18:00 UTC


171738Z 1718/1818 16019G27KT P6SM SKC
FM180200 16015G22KT P6SM SCT080
FM181500 17018G26KT P6SM SCT050
KZMP FIR / North America



MET'MAP, your aeronautical weather chart ! - Copyright ORBIFLY December 2007 - Disclaimer

ORBIFLY MET'MAP TEAM :

Programming & Development : Alexandra Zaïnal
Concept & original design : Baudouin d'Aumeries
Assistance for programming : Marc-Olivier Méhu
Technical & hardware support : Manuel Goepfert

Contact : metmap@orbifly.com




SOURCES & CREDITS :

   NOAA       Earth
Advisory